Voltar ao catálogo

YAOGAN-30 AB

AtivoMilitarVLEO
NORAD 48861·PAYLOAD·🇨🇳 China

Lançado Jun 18, 2021 de Xichang Satellite Launch Center

Loading…

Próximas Passagens (próximas 24 horas)

TLE

AtualizadoSource: Space-Track

Época: Sep 14, 2026, 14:23 UTC

1 48861U 21055B   26257.59960059  .00001824  00000-0  13475-3 0  9993
2 48861  34.9965 326.7627 0003452 153.4826 206.6059 15.03058543286638

Acompanhe YAOGAN-30 AB em tempo real com AllMySat

Download on the App Store